RH
32 29 30 33 34 35 38 43 46 52 57 58 58 58 57 56 54 52 49 49 49 47 44 44 42 39 41 42 43 43 40 36 37 36 34 34 35 37 38 37 35 35 36 38 40 41 39 37 35 34 34 34 36 37 37 36 38 39 39 40 40 40 41 42 43 41 40 39 39 39 38 38 38 38 37 36 36 36 34 34 34 33 34 33 32
33 30 30 31 30 31 35 39 41 45 54 57 57 57 57 56 54 53 52 50 49 49 47 47 46 44 46 46 45 45 41 37 39 40 39 37 36 38 40 37 35 35 35 34 34 36 36 35 35 34 35 36 36 37 37 37 38 39 40 40 40 40 42 42 42 41 40 39 38 38 38 37 37 37 35 34 33 33 31 33 34 34 32 32 32
31 29 31 30 29 29 32 36 36 37 45 51 54 55 55 55 54 52 52 50 49 49 49 49 47 44 46 47 44 44 42 39 41 42 41 39 39 41 43 42 39 38 37 37 36 36 36 35 36 37 39 39 38 38 39 39 40 40 40 40 40 40 41 40 39 38 38 38 37 37 38 38 37 36 35 35 35 34 33 34 34 33 33 32 31
28 27 30 31 31 31 31 33 35 36 38 43 48 52 53 54 54 52 51 50 50 49 48 50 48 43 44 45 42 42 43 42 42 44 44 43 42 41 42 42 41 40 40 40 39 40 39 37 38 39 39 38 37 37 39 39 40 40 40 40 41 41 42 41 39 37 36 37 37 38 37 36 36 37 37 37 37 35 34 33 31 31 32 32 31
32 27 27 29 32 34 34 34 35 35 36 37 41 45 49 52 52 52 51 51 51 51 49 49 47 44 44 47 45 43 43 43 44 46 48 47 45 45 45 43 41 40 39 39 38 38 39 37 39 39 38 38 38 39 40 39 38 40 41 42 42 42 41 40 38 36 35 36 37 36 36 37 39 39 37 36 36 35 33 32 31 31 30 31 31
43 36 30 26 28 32 35 36 38 38 36 36 37 39 44 48 48 48 48 50 51 53 53 51 49 45 45 47 49 48 47 46 45 45 47 48 47 47 47 46 45 44 41 40 40 40 40 39 38 38 38 39 39 40 40 37 37 39 39 39 39 39 39 38 37 36 36 36 36 37 38 39 40 39 38 35 33 32 32 32 34 33 31 29 29
50 48 42 34 29 28 30 33 36 39 39 37 37 38 40 43 44 45 46 47 48 51 53 54 52 49 47 48 50 50 48 48 47 44 45 47 47 46 46 46 46 45 45 45 44 44 43 43 42 41 42 42 42 43 41 39 39 39 38 38 38 37 38 40 40 39 38 38 38 38 39 39 39 40 40 38 35 34 35 37 36 34 31 28 26
55 54 52 47 40 33 30 31 33 36 39 39 38 38 38 39 42 43 44 45 46 47 50 52 52 51 48 48 49 49 49 48 47 45 44 45 44 44 44 44 44 45 46 46 46 44 43 43 43 43 44 44 43 42 42 41 40 40 39 39 38 36 37 39 39 38 37 38 38 38 37 38 39 39 39 40 41 40 39 40 39 36 33 31 29
61 59 58 57 53 46 39 35 34 35 37 37 36 37 38 39 39 40 40 42 44 45 46 49 51 51 49 48 48 48 48 48 47 47 46 45 44 45 45 45 44 44 44 43 43 42 41 41 42 43 43 40 36 34 34 33 33 33 34 34 33 33 34 35 36 35 36 37 38 38 38 39 39 39 40 41 40 37 37 40 40 36 32 31 30
68 67 66 65 63 59 52 43 39 38 37 37 37 35 36 38 39 39 38 38 41 42 43 45 48 50 51 50 49 48 48 48 47 45 44 44 44 44 44 43 41 41 41 40 39 39 39 40 42 41 38 33 31 30 30 29 28 28 28 28 29 30 30 32 34 35 36 37 37 37 38 39 39 39 39 38 35 33 35 37 35 30 28 28 29
76 75 75 73 72 70 66 59 51 45 40 38 39 38 37 36 36 36 35 34 36 36 37 40 43 47 50 50 49 48 48 48 48 44 42 42 42 41 41 40 38 38 39 39 38 39 38 38 38 37 34 33 32 31 30 30 29 28 27 26 26 26 26 27 29 30 32 33 34 34 34 34 34 35 34 33 33 32 31 30 28 26 26 27 28
80 81 80 79 78 77 76 73 69 64 56 48 43 41 40 38 36 35 35 35 34 33 33 34 36 40 45 46 47 47 46 45 45 43 42 42 42 41 41 42 42 41 42 41 40 40 39 38 37 36 36 37 35 31 29 29 30 30 29 28 27 26 25 24 24 24 23 25 27 28 29 29 30 30 29 29 29 27 27 26 27 28 27 27 28
79 81 80 81 81 80 80 79 78 77 73 67 59 51 45 43 41 39 39 39 37 34 33 32 29 33 39 41 42 42 41 40 39 39 40 41 41 41 41 41 42 42 42 42 41 40 39 38 37 36 37 36 32 28 28 28 28 29 29 28 27 26 25 25 24 23 22 22 22 23 24 25 25 25 25 25 25 25 26 28 29 31 30 28 27
80 81 82 82 83 83 83 83 82 82 80 80 78 71 62 54 48 43 40 40 41 38 34 32 31 31 34 37 37 35 34 36 36 35 37 38 38 38 39 39 39 39 39 38 37 38 37 36 36 35 35 34 30 27 27 27 27 27 27 27 27 27 26 25 25 25 25 24 24 23 23 24 25 26 27 26 26 26 27 27 28 30 29 28 28
83 82 83 83 83 85 86 86 85 85 85 85 85 84 80 72 65 59 49 41 44 45 39 35 35 36 37 37 36 34 33 34 34 33 34 35 35 35 35 35 37 38 37 34 31 32 33 33 34 34 33 31 28 27 27 26 26 26 26 26 27 28 28 27 27 28 29 28 28 28 28 29 30 30 29 27 27 26 27 27 28 29 30 30 32
84 84 84 83 82 83 85 86 87 88 90 90 89 89 88 85 82 82 71 54 50 54 50 43 40 40 42 41 38 35 34 34 34 33 33 33 33 33 32 32 33 35 35 31 28 27 29 29 30 33 34 32 28 27 27 26 25 25 25 25 25 26 29 30 30 29 29 29 29 29 29 30 30 29 29 29 31 32 33 34 35 36 38 38 40
84 84 84 83 83 83 83 84 86 88 90 92 92 93 94 92 89 92 87 73 66 67 66 62 58 53 50 47 42 37 36 36 36 35 34 33 33 33 33 32 32 33 34 32 31 31 31 30 30 34 36 34 31 30 30 30 29 28 27 27 27 28 30 32 33 33 31 30 29 29 30 31 31 32 34 37 41 44 44 44 45 47 48 46 46
82 82 83 83 83 84 85 85 85 87 87 89 90 92 94 94 93 94 92 85 78 77 76 76 74 69 63 60 54 46 42 41 41 40 39 39 39 40 41 41 41 40 40 39 40 41 40 38 39 42 42 41 40 41 42 42 42 41 40 38 36 37 39 41 41 42 43 42 39 38 37 37 37 38 41 45 50 52 52 51 52 54 55 54 54
81 81 81 82 82 82 81 81 84 86 86 88 88 89 90 92 94 95 94 90 86 84 83 82 82 81 79 77 73 66 59 55 53 51 49 48 50 52 55 57 57 56 53 50 50 52 52 51 52 53 52 51 52 51 51 51 52 53 51 49 47 46 47 48 48 49 51 52 50 47 45 45 46 47 49 52 54 55 56 56 57 58 60 61 62
80 79 77 77 79 81 79 79 83 85 86 86 87 88 90 91 91 92 91 89 89 89 88 87 87 87 88 88 86 83 79 74 68 64 62 65 69 72 74 75 75 73 69 65 65 66 66 65 64 63 61 60 59 58 57 58 59 60 59 57 55 53 52 52 53 54 55 57 57 57 56 56 58 58 59 60 60 60 60 59 60 62 63 63 66
78 77 76 75 78 82 82 83 84 85 86 86 83 85 88 88 86 87 87 87 89 90 91 91 90 90 91 91 90 90 90 87 80 75 76 80 84 85 85 85 84 82 79 76 74 75 76 76 74 71 69 65 63 62 63 63 64 65 64 63 62 62 61 61 61 61 61 62 62 63 63 64 64 63 63 62 61 62 64 63 62 63 65 65 67
74 72 74 76 79 80 77 77 80 85 89 87 80 78 81 82 80 80 81 82 85 85 86 88 88 89 89 88 87 87 87 87 85 82 82 85 87 88 87 87 87 87 86 83 79 79 81 81 79 77 74 70 66 63 63 64 65 65 66 66 68 68 69 70 70 70 71 72 72 71 71 71 69 67 67 66 64 64 67 68 67 66 67 67 67
71 69 73 78 80 77 73 74 79 86 91 88 79 75 76 76 75 75 73 73 74 75 77 79 80 81 81 81 81 81 81 82 82 81 80 81 82 83 82 81 82 84 84 83 82 82 82 80 78 77 76 72 67 62 61 62 64 67 71 73 75 75 76 78 79 79 80 80 80 80 78 78 77 75 74 74 73 72 72 71 71 70 69 67 66
68 67 72 77 78 77 78 77 77 79 83 80 74 72 72 71 71 71 70 70 71 73 76 78 77 77 79 78 77 79 81 80 78 77 77 78 78 78 78 78 78 79 79 80 80 81 79 77 77 77 76 74 69 64 62 63 66 69 72 75 77 77 78 80 81 82 82 83 83 83 83 82 82 80 77 75 75 75 76 75 76 75 74 72 71
67 66 70 73 73 74 77 75 71 73 77 74 70 69 69 67 68 68 66 66 69 71 74 76 73 71 73 72 71 73 75 72 66 64 64 67 70 71 73 73 73 73 73 74 75 75 74 73 73 72 71 70 67 64 62 62 63 64 65 67 70 71 70 71 73 75 77 79 81 82 83 83 83 83 81 77 75 75 77 78 79 80 79 78 76
64 63 65 67 67 67 68 67 66 67 69 70 71 69 64 61 64 65 63 62 62 62 65 66 62 60 63 65 66 66 66 61 56 51 50 53 55 56 56 57 56 56 58 59 61 61 60 58 59 59 60 60 59 58 57 56 57 57 56 58 61 61 59 59 61 63 65 68 70 72 74 76 78 78 77 75 74 74 75 76 77 80 81 81 79
58 58 59 60 60 60 61 59 58 59 60 62 64 63 58 54 56 60 61 60 59 60 61 59 56 58 63 65 65 62 57 52 48 43 41 41 41 40 40 40 39 38 39 41 44 45 45 45 45 46 48 50 50 51 50 50 49 49 49 49 51 51 50 50 51 52 53 55 57 59 62 66 68 68 68 68 68 68 68 69 71 73 75 77 79
56 56 57 57 57 56 56 54 54 55 56 55 53 52 51 50 49 50 52 54 57 61 63 61 59 59 61 60 58 55 49 42 36 32 31 30 29 28 27 27 27 27 27 28 30 32 33 34 35 36 38 40 42 43 43 42 42 41 41 42 43 42 42 43 42 42 43 43 45 46 48 50 52 52 54 55 56 55 55 57 60 63 65 67 70
55 54 55 57 58 57 56 56 57 57 55 51 48 47 47 47 45 45 44 45 47 50 53 53 52 50 48 47 46 46 43 35 30 28 28 27 26 25 24 24 24 23 23 23 23 23 23 24 25 25 26 28 30 31 31 31 31 31 31 32 33 34 35 35 35 36 36 37 37 38 38 38 39 40 41 42 41 41 41 43 45 48 50 52 55
53 51 51 53 56 57 57 58 59 59 58 55 52 49 48 47 46 45 44 42 41 40 40 39 38 37 35 34 35 36 35 30 28 28 28 26 26 25 23 22 22 21 20 19 19 19 19 20 20 19 18 19 19 19 20 20 20 21 22 22 24 25 26 26 26 27 29 30 32 34 35 35 35 36 35 34 33 33 34 35 36 36 37 37 39
54 52 51 50 51 53 56 57 58 58 60 59 56 53 50 48 45 44 43 41 39 38 37 35 34 34 33 32 31 31 30 28 27 26 25 24 24 23 22 21 20 18 17 16 15 15 15 16 16 15 14 16 15 13 14 15 14 14 15 15 16 16 17 17 16 17 18 19 20 22 23 25 27 28 28 28 28 28 29 29 30 30 30 30 30
53 54 55 54 53 52 52 54 54 54 55 56 55 54 53 50 47 44 41 40 39 38 38 37 36 36 35 34 33 31 30 29 28 26 25 25 24 23 23 22 20 18 17 15 14 14 14 15 14 13 12 13 13 12 13 13 13 12 12 11 12 12 11 11 11 11 11 11 11 12 13 13 15 16 17 19 20 20 22 23 24 24 24 24 24
52 54 57 58 57 55 53 53 52 51 50 49 49 49 49 49 49 47 44 42 41 40 40 40 39 37 36 35 33 32 32 31 30 30 29 27 26 25 24 22 21 19 17 15 15 16 17 19 18 15 14 14 14 14 14 14 13 13 12 12 12 11 10 10 10 9 9 9 10 10 9 9 9 9 10 11 12 13 14 15 16 17 18 19 19
54 54 56 58 58 58 56 56 55 53 51 49 47 47 46 46 48 48 47 46 45 43 42 41 39 37 36 35 33 32 32 31 31 30 28 26 25 24 22 22 23 22 20 19 19 19 20 21 21 18 16 16 15 15 15 14 13 13 14 13 13 13 12 12 12 11 10 10 10 10 10 10 10 9 10 10 11 12 12 12 13 14 14 13 13
57 57 56 56 56 56 55 55 55 55 54 52 50 50 49 48 47 47 46 46 46 46 45 43 39 36 35 35 34 33 32 30 29 27 25 24 22 21 23 26 29 29 28 28 27 25 24 24 23 22 20 18 17 16 16 15 14 14 15 14 14 13 13 14 13 12 12 11 12 12 12 12 11 11 11 12 12 13 14 15 16 16 14 13 12
61 59 57 56 54 53 52 51 51 51 52 51 50 51 50 48 47 47 47 47 45 44 46 47 43 38 36 34 32 30 30 29 27 26 25 23 21 22 26 31 32 31 31 32 31 29 28 27 26 25 24 23 22 21 19 17 16 16 16 15 13 14 15 15 13 12 13 14 15 15 15 15 15 14 13 14 14 15 16 17 17 16 16 15 14
60 58 56 54 52 51 51 51 49 48 48 47 47 48 48 46 45 44 43 43 42 41 42 44 44 41 39 37 33 29 27 27 26 26 26 25 24 26 31 34 33 32 32 32 32 32 31 30 29 28 27 27 26 25 24 22 21 21 20 17 16 17 17 15 14 15 18 20 21 19 18 18 18 18 18 18 18 18 18 18 18 17 16 16 16
55 54 53 51 50 49 49 50 49 47 45 44 44 45 44 42 40 39 37 38 39 38 38 39 40 39 39 40 38 33 28 28 28 29 30 30 30 32 34 33 32 32 32 32 31 32 32 31 30 30 29 29 28 28 27 26 26 25 24 21 20 22 21 19 20 22 23 25 25 23 21 20 20 20 19 19 18 19 20 19 19 18 17 16 18
52 51 50 50 50 49 48 48 47 44 41 40 40 40 40 38 36 36 36 36 37 37 36 37 37 37 38 40 38 33 31 32 33 33 34 34 34 34 34 33 32 32 31 31 31 31 31 31 31 30 30 30 30 30 29 28 28 28 26 25 26 27 26 26 26 26 25 26 27 24 21 20 21 20 19 19 20 20 20 19 18 19 18 18 20
51 50 49 48 48 48 46 46 45 42 40 39 37 37 38 38 36 35 35 35 35 36 35 34 35 37 37 33 27 23 27 32 33 32 33 33 33 33 33 33 32 32 32 31 31 31 30 30 30 31 31 31 31 31 30 30 30 29 28 27 28 28 27 28 28 27 26 27 27 25 23 22 22 21 20 19 20 19 18 18 19 19 20 21 22
54 50 46 43 43 44 43 43 43 42 40 40 38 37 38 38 37 36 35 34 34 35 35 34 35 37 33 26 19 18 23 30 33 32 32 32 32 33 33 32 32 32 32 32 31 32 31 31 31 32 32 32 31 31 29 29 29 29 28 28 27 27 27 28 28 28 27 27 27 28 27 26 25 23 20 19 19 19 20 22 23 23 23 23 23
55 50 44 39 39 42 42 41 41 40 38 37 36 36 37 38 36 35 35 35 34 35 34 34 35 35 30 24 19 17 20 27 33 32 31 32 32 32 32 32 31 30 31 32 31 32 32 31 32 32 32 31 30 29 29 29 29 28 27 27 27 28 28 28 28 27 27 27 27 28 29 28 27 25 23 21 22 23 23 24 24 24 24 24 24
53 50 46 43 43 44 43 40 39 39 38 37 37 37 37 37 36 36 36 36 35 35 34 33 34 34 32 27 22 20 23 30 33 32 32 33 32 31 31 31 30 30 32 33 32 32 32 31 31 31 31 30 30 30 30 30 30 29 29 29 29 30 30 30 29 28 28 27 28 28 29 28 28 26 24 23 23 24 25 24 24 24 24 24 24
50 49 47 47 47 46 44 42 41 42 41 41 40 40 40 39 38 37 36 36 35 35 34 33 33 34 34 32 30 29 31 33 33 33 33 33 31 30 32 32 32 32 33 33 33 33 32 32 32 31 32 32 32 32 32 31 31 31 31 30 31 31 31 31 30 30 29 29 29 29 29 27 27 27 26 25 24 24 24 24 24 24 24 24 24
50 49 47 47 47 46 45 45 45 45 43 42 41 41 39 38 37 35 35 35 34 34 33 33 32 32 32 32 33 33 33 33 33 34 34 33 32 33 34 34 34 34 34 33 34 34 33 33 32 31 31 31 32 32 32 32 32 31 31 31 31 31 31 31 30 30 30 30 29 29 28 28 27 27 27 27 26 24 23 23 24 24 24 24 24
51 49 47 46 46 45 45 45 45 44 43 41 40 39 37 36 35 35 34 34 33 33 33 33 32 31 31 32 33 34 34 34 34 35 35 35 35 35 35 35 34 34 34 34 34 34 34 33 32 30 30 31 32 32 31 31 30 30 30 30 31 30 30 30 30 30 30 30 29 29 29 28 27 26 27 28 27 24 22 22 22 22 22 23 23
52 50 48 48 47 45 44 43 42 42 41 39 38 38 38 36 35 35 33 31 30 32 34 35 35 34 34 34 35 35 36 36 36 36 36 37 36 35 35 35 34 34 34 34 33 32 33 32 31 30 31 31 31 30 30 30 30 30 30 31 31 30 30 30 30 30 30 30 30 29 29 28 27 28 28 28 26 24 22 21 21 21 23 24 25
52 51 49 47 46 45 43 40 38 38 39 37 36 36 37 35 34 35 36 34 33 34 36 36 36 35 36 36 37 37 37 37 37 37 37 36 36 35 35 33 32 32 33 32 32 32 33 32 32 32 32 32 31 30 30 30 31 31 31 31 31 31 31 31 31 31 31 30 28 28 28 28 30 30 28 26 26 25 22 20 21 25 27 28 28
55 53 50 47 46 45 43 41 40 40 40 39 37 37 37 37 37 38 38 37 37 37 37 37 37 37 38 39 39 38 38 38 37 37 36 36 35 35 35 33 32 32 33 33 34 34 34 34 34 33 33 32 31 31 30 31 31 31 31 31 31 31 31 31 30 29 28 26 25 25 25 27 30 31 29 26 25 25 24 24 28 32 34 34 34
60 58 54 51 49 46 44 44 43 43 42 42 41 41 40 39 40 40 39 38 39 39 38 38 39 39 39 40 39 39 39 38 38 37 37 37 36 36 36 35 35 35 35 36 36 35 35 34 34 34 33 32 32 32 31 31 32 31 31 31 31 30 29 28 28 27 26 25 25 25 26 27 29 32 34 34 33 32 32 33 35 35 37 39 41
64 63 59 55 52 48 46 45 45 45 45 45 45 44 43 42 43 42 40 39 41 41 40 39 39 39 38 38 39 39 39 39 39 39 39 39 39 38 38 38 37 37 36 36 36 35 35 34 33 33 33 33 32 33 32 33 33 33 33 32 31 30 29 29 29 29 29 30 30 31 31 32 33 36 40 42 42 40 40 39 37 38 41 45 48